Location: Limerick
(52.6650°N, 8.6230°W)
Time: 03:06:08
(UTC+00:00)

ISS - Visible Passes

Search period start: 22 January 2019 00:00
Search period end: 01 February 2019 00:00
Orbit: 404 x 410 km, 51.6° (Epoch: 22 January)

Date Brightness Start Highest point End Pass type
(mag) Time Alt. Az. Time Alt. Az. Time Alt. Az.
23 Jan -1.4 19:12:51 10° S 19:13:49 14° SSE 19:13:49 14° SSE visible
24 Jan -1.4 18:23:08 10° SSE 18:23:56 11° SE 18:24:43 10° SE visible
24 Jan -1.2 19:56:40 10° SW 19:57:32 16° SW 19:57:32 16° SW visible
25 Jan -2.5 19:05:41 10° SSW 19:08:26 27° SSE 19:08:26 27° SSE visible
26 Jan -1.9 18:14:55 10° SSW 18:17:21 19° SE 18:19:16 13° ESE visible
26 Jan -1.9 19:50:12 10° WSW 19:51:59 28° SW 19:51:59 28° SW visible
27 Jan -3.2 18:58:59 10° SW 19:02:09 43° SSE 19:02:46 38° SE visible
27 Jan -0.4 20:35:13 10° W 20:35:29 12° W 20:35:29 12° W visible
28 Jan -2.6 18:07:52 10° SW 18:10:52 32° SSE 18:13:30 12° E visible
28 Jan -2.7 19:43:51 10° WSW 19:46:13 43° WSW 19:46:13 43° WSW visible
29 Jan -3.6 18:52:31 10° WSW 18:55:47 62° SSE 18:56:55 35° E visible
29 Jan -0.7 20:28:56 10° W 20:29:38 15° W 20:29:38 15° W visible
30 Jan -3.2 18:01:12 10° WSW 18:04:25 49° SSE 18:07:36 10° E visible
30 Jan -3.3 19:37:31 10° W 19:40:19 58° WSW 19:40:19 58° WSW visible
31 Jan -3.8 18:46:06 10° W 18:49:25 74° S 18:50:59 28° E visible
31 Jan -1.0 20:22:36 10° W 20:23:42 19° W 20:23:42 19° W visible
